[[{"header":{"parameterUnit":"m.s-1","parameterCategory":1,"la1":30.2992,"la2":30.254,"lo1":-89.0895,"lo2":-89.0443,"dy":0.0025,"dx":0.0025,"nx":19,"ny":19,"refTime":"2026-05-12T03:00:00:Z","depth":0,"parameterNumber":2,"parameterNumberName":"U-component_of_WINDS"},"data":[0,0,0,1.1963,1.1964,1.2037,1.2037,1.2136,1.2137,0,0,0,0,0,0,0,0,0,0,0,1.1942,1.1942,1.1962,1.1964,1.2037,1.2037,1.2135,1.2137,0,0,0,0,0,0,0,0,0,0,0,1.1941,1.1942,1.1943,1.1965,1.2037,1.2037,1.2135,1.2079,0,0,0,0,0,0,0,0,0,0,1.2008,1.1988,1.1942,1.1943,1.1965,1.2037,1.2037,1.2076,1.2083,1.2104,0,1.2121,0,1.213,1.2143,1.2144,0,0,0,1.1965,1.1983,1.2002,1.1943,1.1966,1.2036,1.2004,1.208,1.2087,1.2113,1.2123,1.2126,1.2132,1.2144,1.2144,1.2265,1.2265,0,0,1.196,1.1956,1.1997,1.2007,1.1993,1.2002,1.2006,1.2084,1.2096,1.2123,1.2129,1.2134,1.2145,1.2145,1.2264,1.2265,0,0,0,1.1949,1.1953,1.197,1.2003,1.2015,1.2004,1.2009,1.2092,1.2098,1.213,1.2135,1.2145,1.2146,1.2263,1.2264,1.2287,0,0,0,1.1946,1.1946,1.1968,1.1966,1.2014,1.2054,1.2015,1.2093,1.2101,1.2134,1.2145,1.2147,1.2263,1.2264,1.2285,1.2299,0,0,0,1.1937,1.1945,1.1955,1.1965,1.1996,1.2053,1.2063,1.2095,1.2105,1.2144,1.2148,1.2262,1.2264,1.2283,1.2296,1.2331,0,0,0,1.1926,1.1974,1.1955,1.2012,1.1995,1.2065,1.2062,1.2115,1.2151,1.2146,1.2263,1.2264,1.2283,1.2294,1.2329,1.2359,1.2371,0,0,1.1984,1.1981,1.2015,1.2,1.2072,1.2055,1.2131,1.2169,1.2179,1.2236,1.2239,1.2286,1.2296,1.233,1.2437,1.2446,0,0,0,1.2032,1.2056,1.2076,1.211,1.2139,1.2167,1.2194,1.2209,1.2258,1.2206,1.2307,1.2313,1.2334,1.2349,1.2357,1.2376,1.227,1.227,1.227,1.2108,1.2116,1.2174,1.2192,1.2225,1.2253,1.2282,1.2307,1.2306,1.233,1.2347,1.2411,1.2428,1.2434,1.2454,1.2363,1.2363,1.2363,1.2363,1.2196,1.2232,1.2231,1.2286,1.2296,1.2344,1.2374,1.2373,1.242,1.2398,1.2416,1.2391,1.2444,1.2462,1.2365,1.2365,1.2365,1.2364,1.2364,1.2247,1.2267,1.2283,1.2334,1.2373,1.2391,1.2437,1.2444,1.2452,1.247,1.2491,1.2491,1.2493,1.2479,1.248,1.248,1.248,1.248,1.248,1.2295,1.2313,1.2349,1.2387,1.2411,1.2443,1.2474,1.2499,1.2529,1.2531,1.2531,1.253,1.2446,1.2426,1.2484,1.2483,1.2483,1.2482,1.2482,1.2383,1.2365,1.2421,1.2445,1.2491,1.2531,1.254,1.2591,1.2613,1.2636,1.2631,1.2568,1.2565,1.2559,1.2543,1.2627,1.2627,1.2627,1.2627,1.2428,1.2427,1.2488,1.2526,1.2565,1.258,1.2648,1.2674,1.2698,1.2713,1.2702,1.268,1.2673,1.2675,1.2667,1.2652,1.2762,1.2762,1.2762,1.2484,1.2487,1.2542,1.2563,1.2601,1.2634,1.2699,1.2746,1.277,1.2768,1.2726,1.272,1.2685,1.2673,1.267,1.2656,1.2628,0,0]},{"header":{"parameterUnit":"m.s-1","parameterCategory":1,"la1":30.2992,"la2":30.254,"lo1":-89.0895,"lo2":-89.0443,"dy":0.0025,"dx":0.0025,"nx":19,"ny":19,"refTime":"2026-05-12T03:00:00:Z","depth":0,"parameterNumber":3,"parameterNumberName":"V-component_of_WINDS"},"data":[0,0,0,-0.6036,-0.6033,-0.5848,-0.5847,-0.5618,-0.5616,0,0,0,0,0,0,0,0,0,0,0,-0.6098,-0.6097,-0.6037,-0.6032,-0.5848,-0.5847,-0.5618,-0.5616,0,0,0,0,0,0,0,0,0,0,0,-0.6099,-0.6097,-0.6096,-0.6032,-0.5848,-0.5847,-0.5619,-0.5755,0,0,0,0,0,0,0,0,0,0,-0.5932,-0.5998,-0.6098,-0.6096,-0.6031,-0.5849,-0.5847,-0.5761,-0.5746,-0.5706,0,-0.5674,0,-0.5642,-0.5602,-0.5601,0,0,0,-0.6026,-0.6011,-0.5954,-0.6096,-0.6029,-0.5849,-0.5929,-0.5753,-0.5736,-0.5686,-0.5671,-0.5662,-0.5638,-0.56,-0.5599,-0.539,-0.5389,0,0,-0.6036,-0.6069,-0.5966,-0.5944,-0.5976,-0.5935,-0.5924,-0.5743,-0.5727,-0.567,-0.5656,-0.5634,-0.5599,-0.5597,-0.539,-0.5389,0,0,0,-0.607,-0.6076,-0.6024,-0.5954,-0.592,-0.593,-0.5917,-0.5735,-0.5716,-0.5654,-0.5632,-0.5597,-0.5595,-0.5391,-0.539,-0.5387,0,0,0,-0.6075,-0.6096,-0.6029,-0.6047,-0.5924,-0.5826,-0.5914,-0.5728,-0.5707,-0.5633,-0.5597,-0.5593,-0.5392,-0.539,-0.5389,-0.5379,0,0,0,-0.6108,-0.6099,-0.6076,-0.6049,-0.5971,-0.5828,-0.5798,-0.5723,-0.5693,-0.5601,-0.5592,-0.5392,-0.5391,-0.539,-0.5382,-0.5332,0,0,0,-0.6151,-0.6076,-0.6076,-0.5983,-0.5973,-0.5829,-0.5799,-0.569,-0.561,-0.5596,-0.5392,-0.539,-0.5391,-0.5383,-0.5334,-0.5294,-0.5282,0,0,-0.6075,-0.6068,-0.6011,-0.6005,-0.587,-0.5855,-0.5717,-0.5613,-0.5574,-0.5452,-0.5447,-0.5388,-0.5382,-0.5332,-0.5204,-0.5194,0,0,0,-0.5997,-0.5956,-0.5913,-0.584,-0.5759,-0.5688,-0.5601,-0.5562,-0.5457,-0.5519,-0.5357,-0.5352,-0.5321,-0.5301,-0.5292,-0.5262,-0.5383,-0.5383,-0.5383,-0.5935,-0.5889,-0.579,-0.5721,-0.5649,-0.556,-0.5496,-0.5427,-0.5402,-0.5364,-0.5327,-0.5255,-0.5233,-0.5226,-0.5195,-0.5305,-0.5305,-0.5304,-0.5304,-0.5817,-0.575,-0.5717,-0.5609,-0.5559,-0.5466,-0.5375,-0.536,-0.5263,-0.528,-0.525,-0.527,-0.5217,-0.5187,-0.5304,-0.5304,-0.5304,-0.5304,-0.5304,-0.5769,-0.5729,-0.5683,-0.557,-0.5487,-0.5418,-0.5327,-0.5285,-0.5245,-0.5216,-0.517,-0.517,-0.5162,-0.5198,-0.5198,-0.5197,-0.5197,-0.5197,-0.5197,-0.5737,-0.5685,-0.5615,-0.5521,-0.5467,-0.5389,-0.5296,-0.524,-0.5167,-0.5143,-0.5142,-0.5118,-0.5222,-0.5247,-0.5192,-0.5193,-0.5194,-0.5194,-0.5194,-0.563,-0.5647,-0.5539,-0.5484,-0.5368,-0.5286,-0.5234,-0.5123,-0.507,-0.5026,-0.5007,-0.5092,-0.5081,-0.5087,-0.5108,-0.502,-0.502,-0.502,-0.502,-0.5589,-0.558,-0.5457,-0.5372,-0.5283,-0.5224,-0.5098,-0.5023,-0.4949,-0.4912,-0.4919,-0.4943,-0.4952,-0.4936,-0.4945,-0.4963,-0.4841,-0.4841,-0.4841,-0.5519,-0.5499,-0.5402,-0.533,-0.5236,-0.5154,-0.5033,-0.4933,-0.4852,-0.4832,-0.4881,-0.4889,-0.4928,-0.4944,-0.4925,-0.4941,-0.4973,0,0]}]]